Theta_e
298 301 301 301 300 300 299 298 297 298 298 298 300 302 303 302 299 299 305 315 318 321 322 324 326 328 327 327 326 326 325 327 327 329 330 329 329 335 335 336 335 336 334 333 332
299 299 300 300 301 300 299 299 298 297 299 298 298 300 302 303 301 300 299 303 313 318 321 323 325 327 327 327 326 325 323 326 324 325 327 328 329 332 334 334 333 335 334 332 330
302 300 298 300 301 300 300 298 295 297 299 300 298 298 299 301 299 300 310 304 306 314 319 322 324 327 327 327 326 325 325 325 324 323 324 326 326 332 333 332 333 335 334 331 330
301 299 299 300 300 300 300 298 295 296 299 299 299 297 298 299 297 312 315 315 315 313 317 320 324 327 329 326 326 325 325 326 325 323 323 324 326 326 332 332 331 333 333 332 330
303 301 300 301 301 300 300 299 297 297 298 300 299 298 298 301 300 299 299 304 313 317 319 321 324 326 328 326 326 325 325 326 326 323 323 323 323 325 330 331 334 332 332 331 330
306 304 302 302 302 300 299 300 300 299 298 299 299 298 299 303 299 302 301 301 306 311 316 320 323 324 327 328 327 326 325 325 325 323 323 323 324 327 331 331 334 331 332 331 330
306 306 304 303 303 301 299 299 300 300 298 299 299 298 302 299 299 300 303 310 308 311 313 316 320 323 326 326 327 326 326 326 325 325 322 324 325 324 331 333 332 332 332 331 330
304 304 305 304 303 302 299 299 299 299 298 300 299 298 300 298 302 305 303 304 309 311 311 314 318 321 324 325 326 327 327 329 326 325 324 323 325 322 332 333 331 331 331 331 330
303 303 302 304 304 302 299 298 298 299 300 300 299 302 301 304 306 306 307 308 305 305 308 308 316 320 321 324 324 328 332 329 328 325 325 323 324 322 333 333 332 331 330 331 331
304 303 302 302 304 302 299 297 299 301 303 302 303 302 300 303 303 302 304 306 308 308 309 310 316 320 320 323 324 321 330 329 328 326 325 324 323 322 333 333 333 332 330 330 330
305 304 304 302 304 300 298 298 299 301 301 301 301 302 301 300 301 302 302 306 308 308 309 312 318 319 320 320 319 316 313 314 327 325 327 326 326 323 325 332 332 331 330 329 329
304 305 303 303 301 298 299 300 303 302 302 299 300 301 303 303 302 300 303 307 308 308 310 310 314 314 315 318 319 319 316 315 324 325 327 327 326 325 321 327 330 332 331 329 329
304 305 302 303 299 299 299 301 301 301 302 300 303 304 304 304 305 302 304 306 308 308 309 311 312 311 314 314 315 315 315 315 316 326 325 327 329 327 324 323 323 331 332 330 329
304 303 302 299 299 299 300 301 299 301 290 297 302 303 304 305 305 303 305 307 308 307 306 309 310 312 315 311 313 317 315 314 320 326 331 327 331 329 326 324 322 327 332 331 330
303 302 298 298 298 299 299 298 300 302 291 296 301 304 303 304 303 303 306 307 308 308 308 309 313 315 315 315 311 316 313 313 315 325 328 328 330 329 327 327 322 329 330 327 330
302 298 299 298 301 298 297 300 302 291 289 294 299 301 302 303 304 305 305 306 307 308 307 309 311 314 315 314 312 311 313 314 320 326 330 327 330 328 328 327 323 325 321 322 324
298 299 298 301 301 298 300 302 292 290 292 294 299 300 300 302 303 305 306 306 308 306 300 308 312 313 313 315 312 312 313 320 322 323 326 326 328 327 324 324 323 322 318 318 319
299 300 301 301 301 298 301 293 289 281 286 295 298 299 300 301 302 303 304 306 306 307 305 305 306 314 314 314 314 313 314 318 320 325 324 325 327 326 316 317 319 321 316 316 315
299 301 301 302 302 301 300 289 290 285 295 300 298 299 295 300 300 301 304 306 308 307 307 305 309 313 313 315 313 312 316 312 315 316 323 322 318 314 314 312 314 309 309 308 312
301 301 300 300 300 302 294 295 295 299 301 300 298 296 300 294 300 298 299 304 309 308 307 309 307 311 313 314 313 314 314 317 316 320 323 322 322 324 315 313 309 308 306 305 308
301 301 300 300 300 301 291 286 293 300 301 300 300 296 299 297 301 303 294 301 306 308 306 308 311 308 311 313 314 313 316 316 316 316 320 323 323 307 315 312 309 306 304 304 306
302 296 300 300 297 297 288 296 297 298 301 301 301 300 299 295 301 302 301 302 305 307 308 308 310 312 313 309 309 311 315 316 317 318 316 317 319 305 310 312 309 306 304 305 306
300 299 299 300 291 286 292 297 297 298 300 301 302 301 301 298 299 301 303 302 304 306 306 304 309 312 311 310 309 313 313 314 313 313 315 319 319 308 308 310 307 304 304 304 304
300 293 299 299 297 293 296 294 298 298 299 300 299 299 301 299 300 298 301 301 303 305 306 308 308 310 310 311 310 313 313 313 315 313 314 315 312 309 309 307 304 304 305 305 304
300 295 295 288 294 297 297 296 297 294 299 299 297 299 301 298 297 302 302 302 302 304 305 307 308 309 310 309 309 310 311 312 314 313 315 313 311 309 309 308 304 305 305 303 302
299 296 295 294 296 296 297 294 296 292 297 297 296 299 299 300 299 298 298 300 303 300 304 305 307 307 308 306 306 310 310 310 312 312 313 313 313 308 306 308 305 305 304 303 303
300 297 298 294 293 295 293 293 296 297 296 297 297 298 299 299 298 297 297 297 297 299 303 306 305 299 304 301 303 304 306 310 310 310 312 313 311 305 306 306 306 306 305 305 304
Wind_Speed
4 5 5 6 7 10 11 12 12 13 13 14 14 15 16 17 18 18 21 22 17 16 16 17 14 13 16 14 9 5 1 4 5 7 5 8 4 8 11 16 10 11 9 7 31
6 5 7 6 7 9 10 12 12 12 12 13 15 15 15 17 20 21 22 21 22 18 17 15 16 11 6 6 6 7 3 7 5 4 5 10 10 16 8 13 8 9 13 22 35
5 7 8 5 8 9 12 14 13 11 11 13 14 15 16 16 21 7 5 11 22 21 18 16 14 9 7 12 9 4 5 5 5 5 8 10 8 13 12 5 13 23 26 36 38
5 6 6 6 9 10 13 15 12 9 11 14 15 15 14 11 6 1 5 5 4 17 19 17 13 8 5 6 14 7 10 17 9 5 4 6 10 8 16 6 14 22 28 40 41
6 6 6 8 10 11 12 12 12 10 10 12 13 14 15 9 15 15 19 14 12 9 16 17 17 13 9 6 14 12 11 10 19 13 6 6 9 8 13 8 14 24 34 42 41
8 7 8 9 10 11 11 12 12 12 11 11 12 12 12 8 7 10 10 14 14 14 15 20 13 18 12 11 18 10 24 22 14 14 7 5 5 10 8 15 21 29 36 41 40
11 10 9 9 11 12 11 11 13 13 11 11 12 12 15 21 12 15 13 15 15 14 18 19 24 23 8 9 28 14 7 15 24 13 6 8 5 6 13 20 28 31 37 40 39
9 9 10 10 11 13 12 12 14 14 11 11 11 11 11 13 10 13 15 19 17 12 15 19 21 28 18 12 5 18 5 10 18 22 12 8 7 5 21 27 23 30 36 39 39
11 10 10 10 11 13 13 13 14 14 11 10 9 6 12 4 6 14 14 16 19 21 21 20 20 22 12 9 12 12 14 25 15 22 7 9 5 6 26 27 20 25 33 38 39
9 8 8 8 9 12 13 14 13 11 5 6 5 7 7 6 16 21 14 16 16 19 21 13 11 5 12 10 15 6 21 13 21 25 17 9 6 4 27 27 26 29 31 35 40
9 7 6 6 7 10 11 13 7 2 9 10 14 16 25 22 24 22 17 15 14 11 6 11 8 12 12 17 17 6 4 14 18 15 14 16 14 9 17 19 17 22 27 31 33
9 6 5 4 5 6 8 6 5 8 11 15 11 15 19 17 15 21 13 6 5 7 8 7 14 11 8 12 19 21 7 12 16 13 17 15 14 15 8 15 20 27 25 27 30
8 5 5 3 2 4 6 5 6 8 4 9 9 10 11 11 8 20 13 6 5 5 10 12 8 16 9 4 7 6 9 11 13 9 10 14 14 5 4 5 14 23 30 29 38
8 6 5 2 0 3 3 5 7 6 4 6 5 4 10 8 7 15 13 7 4 8 8 8 10 15 10 6 5 6 3 5 15 16 14 17 10 18 13 8 4 15 25 29 37
8 7 4 2 1 3 4 4 3 4 5 5 7 8 16 6 14 4 9 5 7 9 4 6 4 15 14 5 9 4 2 8 16 15 9 16 10 8 24 18 7 11 22 32 38
8 6 4 1 2 4 2 2 3 6 5 7 6 7 8 7 5 8 5 1 9 4 6 10 11 7 3 8 9 2 6 17 8 9 12 9 14 12 21 30 12 11 21 29 35
8 7 3 1 2 2 2 3 5 4 4 8 4 7 8 5 6 2 3 4 1 2 3 4 4 3 7 4 7 3 5 4 3 3 2 18 11 2 13 23 22 19 24 29 32
10 6 3 3 3 2 2 5 4 3 5 4 5 10 3 6 4 5 6 4 3 4 3 3 4 2 4 2 4 4 4 1 3 2 3 10 7 3 3 7 9 27 30 31 31
9 6 3 2 1 1 2 4 6 6 3 6 7 5 6 4 2 6 2 3 3 3 3 2 4 2 4 2 2 4 3 6 2 3 2 4 2 1 5 8 16 21 26 27 34
9 5 3 1 0 2 4 3 2 4 3 2 1 1 5 5 8 5 3 2 4 6 6 4 5 0 2 2 4 3 6 3 1 4 3 1 2 2 5 7 10 13 17 22 26
8 3 2 2 2 2 3 5 4 2 1 2 1 3 5 4 3 4 4 5 6 5 9 1 2 4 2 1 2 2 3 3 3 1 3 2 2 4 4 10 11 11 15 23 26
5 0 3 1 3 2 2 0 3 7 3 4 3 4 5 3 3 3 4 3 13 10 4 3 2 3 1 1 1 1 3 1 3 3 2 1 2 5 4 10 15 15 17 22 23
3 3 2 2 3 1 2 2 4 3 3 2 3 3 1 2 3 4 4 7 11 7 3 3 3 3 0 2 2 1 2 2 2 2 2 2 3 5 5 10 15 20 18 20 22
4 1 1 2 3 4 2 4 3 5 10 5 3 3 3 3 5 5 4 5 15 8 14 4 3 1 0 2 1 4 3 1 3 2 2 2 1 2 1 8 13 18 21 21 22
4 2 3 1 2 4 1 2 3 2 3 3 3 5 4 3 4 3 4 5 5 11 9 6 2 3 3 3 2 1 4 3 3 1 2 2 2 3 5 5 12 21 22 22 22
4 5 4 4 4 4 2 3 5 4 4 3 4 3 5 4 3 4 3 4 3 10 6 6 3 4 5 6 5 3 2 4 2 1 2 0 1 3 5 11 11 16 22 22 23
10 7 3 5 3 3 4 5 5 3 4 5 3 4 4 4 6 10 9 11 8 5 4 5 3 4 3 6 7 4 4 5 2 2 4 3 1 5 3 6 17 20 23 25 26
Wind_Direction
351 349 352 350 352 349 344 333 320 315 315 313 308 313 317 310 295 276 256 248 266 272 275 280 286 260 250 270 266 264 356 223 231 160 217 182 160 164 145 145 190 198 185 221 170
7 344 327 343 349 349 346 340 330 318 318 313 310 312 310 317 313 290 276 255 253 265 273 274 276 269 203 215 228 192 203 225 222 213 190 192 175 162 156 160 206 183 173 170 171
354 340 332 330 342 342 343 339 329 321 323 325 318 311 315 324 321 305 311 257 241 251 259 266 263 261 209 218 201 210 213 265 267 237 228 196 185 175 152 217 200 184 172 174 175
355 352 348 337 337 336 343 345 342 332 330 328 324 318 321 319 295 335 358 340 285 251 252 253 250 224 227 206 210 223 241 252 294 238 216 186 174 188 184 195 210 194 184 178 181
344 343 341 333 332 333 338 345 351 343 331 330 324 320 321 291 270 293 276 277 297 294 256 245 241 223 219 181 224 228 215 268 257 258 233 201 193 194 192 202 178 177 178 181 185
307 320 323 326 330 327 331 338 342 334 325 325 325 317 306 283 306 345 298 262 259 281 272 250 248 238 254 226 224 196 231 236 271 262 250 201 215 174 183 174 172 177 182 186 188
288 291 303 313 322 327 326 326 331 326 319 319 318 310 290 269 305 287 280 282 272 273 278 263 250 249 214 219 234 229 211 224 244 259 272 193 247 209 181 167 171 180 185 189 191
278 287 285 300 317 325 320 321 323 317 313 313 304 298 268 315 309 321 309 263 278 277 291 271 261 250 257 247 300 213 202 211 211 228 249 200 224 223 176 171 176 183 187 194 193
263 269 277 286 306 320 323 322 316 304 308 302 302 294 278 333 331 324 325 302 287 284 286 289 265 244 252 220 256 208 209 217 212 213 223 204 211 183 181 177 180 187 193 197 194
257 256 268 276 295 321 324 322 315 305 322 314 290 300 275 301 313 318 307 305 295 288 294 264 247 254 209 215 215 323 216 213 214 210 222 220 231 178 181 178 188 194 197 197 197
240 253 271 274 303 324 330 346 342 315 316 277 283 263 281 298 293 299 317 301 280 281 259 268 246 227 266 222 217 220 273 324 207 203 197 226 209 221 188 191 182 192 197 197 196
226 237 259 260 313 332 347 39 26 326 309 312 302 282 298 303 292 302 317 296 204 228 244 269 254 232 348 274 225 215 267 292 276 190 178 213 217 223 156 206 194 188 196 186 186
209 216 220 253 321 341 0 22 347 340 287 299 318 303 321 302 283 293 290 307 267 266 232 251 291 312 195 341 148 218 229 262 258 225 187 184 229 230 222 238 209 207 196 188 187
183 199 197 192 333 1 12 344 345 346 53 288 341 323 326 314 279 312 282 240 254 238 214 237 244 251 193 168 241 165 75 316 266 228 201 185 218 224 206 191 218 188 182 177 188
179 185 179 172 333 356 323 331 360 2 17 292 305 315 323 274 300 291 341 214 219 282 340 240 220 220 184 190 198 176 78 313 271 241 191 193 218 186 218 217 193 165 169 177 188
175 179 170 121 30 6 10 44 10 44 266 325 321 342 351 306 269 288 305 85 306 293 252 245 278 259 235 146 166 61 18 295 211 243 215 186 195 198 191 213 191 160 164 170 180
168 168 170 90 33 28 76 17 36 121 326 310 328 344 331 285 306 276 323 322 202 305 306 311 205 255 165 149 109 108 75 289 194 216 243 170 199 162 191 202 194 168 161 167 177
167 166 137 101 63 77 44 55 87 231 248 322 324 312 287 341 296 325 327 331 301 229 295 172 300 242 178 227 164 118 127 262 312 277 128 166 197 188 62 331 165 166 162 170 177
171 166 143 109 74 77 79 63 206 205 241 314 330 339 313 328 357 349 308 296 284 303 286 343 285 126 316 207 175 129 155 150 310 222 237 149 176 217 88 65 110 134 147 156 173
176 174 155 127 60 163 80 234 238 214 271 262 288 299 314 299 343 9 313 267 286 358 346 327 314 359 221 86 188 163 159 126 103 323 356 33 142 86 173 146 129 138 141 155 169
176 198 199 148 130 124 144 222 257 254 167 276 297 275 278 291 307 299 267 295 343 325 332 271 294 295 359 43 118 315 147 99 116 259 309 15 35 326 170 155 148 146 149 158 164
184 32 199 177 59 7 105 49 320 263 227 264 270 240 231 262 278 279 294 284 332 306 307 263 255 290 197 287 330 25 36 196 156 230 323 80 343 322 84 144 145 149 161 167 168
196 204 201 211 131 281 293 272 257 278 218 260 273 228 270 271 302 247 295 275 319 324 28 299 227 267 320 296 341 324 97 269 104 73 214 95 306 2 64 130 147 143 166 171 170
171 51 168 122 83 125 164 269 269 235 253 261 278 289 263 264 230 283 290 294 322 315 323 296 300 297 172 39 110 205 151 234 94 113 169 226 312 124 121 136 140 155 175 177 180
198 214 171 228 226 145 190 263 277 271 257 223 286 229 276 283 299 259 299 299 307 346 334 346 269 339 18 348 288 249 132 160 158 187 132 335 18 64 185 179 162 168 174 174 183
201 167 143 111 127 164 184 232 215 269 210 245 215 302 285 255 232 291 357 348 350 325 340 343 324 341 354 346 13 11 89 189 217 97 292 276 342 35 94 141 159 178 173 176 189
201 182 153 157 157 155 215 212 222 182 232 242 254 294 273 283 282 281 271 277 277 311 315 326 359 23 308 350 336 6 240 194 183 199 169 212 166 150 99 155 187 196 199 199 200